User: anonymous   Login
Location: Vancouver
(49.2500°N, 123.1330°W)
Time: 05:27:26
(UTC-08:00)
Language:

Cosmos 2333 Rocket - Orbit

View from above orbital plane
View from above orbital plane
View from above satellite
View from above satellite

Ground track
Ground track

The orbit data is extracted from the following two-line orbital elements,

1 24298U 96051B   17052.71920322  .00000074  00000-0  66232-4 0  9991
2 24298  70.8492 305.4326 0015134 341.8144  18.2433 14.12480318 55518
Epoch (UTC): 21 February 2017 17:15:39
Eccentricity: 0.0015134
inclination: 70.8492°
perigee height: 840 km
apogee height: 862 km
right ascension of ascending node: 305.4326°
argument of perigee: 341.8144°
revolutions per day: 14.12480318
mean anomaly at epoch: 18.2433°
orbit number at epoch: 5551

The dashed part of the orbit path shows where the satellite is in the earth's shadow,  

DLR